This is the latest recevied weather packets stored in our database for station/object CE3TL-WX. If no packets are shown the sender has not sent any weather packets the latest 10 day(s).
| Time | Temp. | Humidity | Pressure | Rain* | Wind** | Luminosity | Snow |
|---|---|---|---|---|---|---|---|
| 1778059712 | 11.11° C | 78% | 1022.5 hPa | - | - | - | - |
| 1778059179 | 11.11° C | 78% | 1022.3 hPa | - | - | - | - |
| 1778058645 | 10.56° C | 78% | 1022.2 hPa | - | - | - | - |
| 1778058113 | 10.56° C | 79% | 1022.2 hPa | - | - | - | - |
| 1778057576 | 11.11° C | 78% | 1022.1 hPa | - | - | - | - |
| 1778057042 | 11.11° C | 77% | 1022.1 hPa | - | - | - | - |
| 1778056508 | 11.11° C | 77% | 1022.3 hPa | - | - | - | - |
| 1778055975 | 11.67° C | 77% | 1022.5 hPa | - | - | - | - |
| 1778055441 | 11.67° C | 77% | 1022.5 hPa | - | - | - | - |
| 1778054908 | 11.67° C | 76% | 1022.3 hPa | - | - | - | - |
| 1778054372 | 11.11° C | 77% | 1022.2 hPa | - | - | - | - |
| 1778053839 | 11.67° C | 75% | 1021.9 hPa | - | - | - | - |
| 1778053305 | 11.67° C | 75% | 1021.8 hPa | - | - | - | - |
| 1778052771 | 11.67° C | 75% | 1021.7 hPa | - | - | - | - |
| 1778052236 | 11.67° C | 75% | 1021.5 hPa | - | - | - | - |
| 1778051702 | 12.22° C | 74% | 1021.6 hPa | - | - | - | - |
| 1778051169 | 12.78° C | 73% | 1021.8 hPa | - | - | - | - |
| 1778050634 | 12.78° C | 73% | 1021.9 hPa | - | - | - | - |
| 1778050100 | 12.78° C | 74% | 1022 hPa | - | - | - | - |
| 1778049567 | 12.78° C | 74% | 1022 hPa | - | - | - | - |
| 1778049033 | 12.78° C | 74% | 1021.9 hPa | - | - | - | - |
| 1778048499 | 12.78° C | 73% | 1022.1 hPa | - | - | - | - |
| 1778047965 | 12.78° C | 73% | 1022.2 hPa | - | - | - | - |
| 1778047432 | 12.78° C | 73% | 1022.5 hPa | - | - | - | - |
| 1778046898 | 12.78° C | 73% | 1022.6 hPa | - | - | - | - |
* Rain since midnight (hover to see other rain measurements)
** Current wind speed in m/s (hover to see current wind gust speed)